Theta_e
318 318 318 318 318 319 318 318 319 319 319 319 320 321 321 321 322 324 325 327 329 331 331 331 331 332 332 332 332 332 332 332 331 331 330 331 331 331 332 333 333 333 334 333 333 334 334 333 333 333 333 332 332 332 332 332 333 333 333 334 333 332 330 331 331 330 330 329 329 329 329 329 329 327 324 323 322 318 315 316 319 318 310 303 305
317 318 318 317 317 318 317 317 317 317 318 318 319 320 320 321 322 323 324 325 327 329 330 330 331 331 331 331 332 332 331 331 331 331 330 330 330 331 331 331 331 333 334 333 332 332 332 332 332 333 333 332 332 333 333 333 334 333 333 334 333 332 332 332 332 332 332 330 329 329 329 328 329 328 324 323 323 317 314 316 321 323 316 307 303
317 317 316 316 317 317 317 317 316 316 317 317 318 318 319 320 321 322 323 324 326 327 329 330 330 330 330 329 330 331 331 331 331 331 330 330 330 331 330 330 330 331 332 332 332 331 331 331 331 332 332 332 332 332 333 332 333 334 333 333 333 332 332 332 332 333 332 332 330 328 328 328 328 328 325 324 324 318 312 313 318 321 320 313 307
316 316 316 316 316 316 316 316 316 316 316 316 317 317 318 319 320 320 321 322 323 324 326 328 329 329 330 330 330 330 330 331 331 331 331 331 330 331 330 330 330 330 331 332 331 330 330 331 331 331 331 332 333 332 332 332 332 333 333 333 333 332 332 332 332 332 331 331 331 329 329 330 328 327 324 323 323 319 315 315 318 319 318 316 312
315 315 315 315 315 315 316 315 315 316 316 316 316 316 317 317 318 319 319 320 321 322 323 324 325 326 327 329 330 330 329 329 330 330 331 330 330 330 330 330 330 328 330 332 332 330 330 329 330 332 331 331 332 332 331 332 332 331 331 331 331 331 331 330 329 330 329 329 330 330 329 329 328 327 324 322 321 319 317 317 319 319 317 314 312
314 315 315 315 315 315 315 315 315 316 316 316 316 316 316 316 316 317 317 318 318 319 319 320 321 322 324 326 327 328 328 328 329 329 330 330 330 329 329 330 330 329 329 331 332 332 331 329 330 331 330 331 331 331 331 331 331 331 332 331 329 329 329 328 328 329 328 327 328 329 329 328 328 327 325 323 321 319 316 316 319 319 316 313 312
313 314 314 314 314 314 314 314 315 315 315 315 315 315 315 315 315 315 315 315 315 316 316 317 318 319 320 321 322 323 324 327 328 328 327 328 329 329 330 329 329 330 329 329 330 332 332 331 330 329 328 330 331 331 331 331 332 332 332 332 331 330 329 327 328 328 328 328 328 327 328 329 328 326 326 324 321 318 314 313 316 318 315 312 311
313 313 313 313 313 313 313 314 314 314 314 314 314 314 314 314 314 313 313 312 312 313 313 314 315 315 316 318 319 320 321 324 325 323 322 323 325 327 329 328 329 330 329 329 331 332 331 331 330 328 328 330 331 331 330 330 331 331 332 332 331 330 329 327 328 328 328 328 328 327 328 328 327 326 326 325 322 318 314 312 314 316 314 312 312
312 312 312 312 312 312 312 313 313 313 313 313 313 313 313 313 313 312 311 311 310 311 311 312 312 312 313 314 315 316 319 321 320 317 318 319 320 323 326 327 328 329 329 330 331 331 331 331 330 329 330 331 330 330 330 330 331 331 331 332 331 330 327 326 328 328 327 327 327 327 327 326 326 326 326 326 323 320 316 313 313 314 313 313 313
311 311 311 311 311 311 311 311 311 311 311 311 312 312 312 312 311 311 310 310 309 309 309 309 309 310 310 311 311 312 315 317 315 314 315 315 317 321 323 324 326 328 329 329 330 330 331 330 329 329 331 332 330 330 330 330 331 331 332 332 331 329 327 327 328 328 327 327 327 327 326 325 326 327 327 326 324 322 318 315 315 315 313 313 313
310 310 310 310 310 310 310 310 310 310 310 310 310 310 310 310 310 310 310 309 309 308 308 308 307 308 307 308 308 309 311 311 310 309 311 313 314 317 320 322 324 326 328 329 329 330 330 330 329 329 331 332 330 330 330 330 331 331 332 331 330 329 327 327 328 327 327 327 327 327 326 325 325 326 326 324 323 322 319 316 316 316 314 314 314
309 309 309 309 309 309 309 309 309 309 309 309 309 309 309 309 309 309 309 309 308 308 307 307 306 306 305 305 305 306 307 307 306 306 308 311 312 314 316 319 322 324 327 328 329 329 330 330 329 329 330 330 330 330 330 331 331 331 331 331 329 328 326 327 328 328 327 327 327 326 326 325 325 325 324 323 322 321 318 317 317 317 316 315 315
308 308 308 308 308 308 308 308 308 308 308 308 308 308 308 308 308 308 308 308 308 307 307 306 305 304 304 304 304 304 304 304 303 305 307 310 311 312 314 316 320 323 326 327 328 329 329 329 328 328 329 329 329 330 330 330 331 330 329 329 328 327 327 327 328 328 328 328 327 326 325 325 325 324 323 322 321 319 318 318 317 317 318 317 316
308 308 307 307 307 307 307 308 307 307 308 307 307 307 307 307 307 307 307 307 307 307 307 306 305 303 303 303 302 302 302 301 301 305 307 309 311 312 313 315 318 321 324 326 327 327 328 328 328 328 328 328 328 328 328 329 329 329 328 328 327 327 328 327 327 327 328 327 326 326 326 326 325 324 323 323 321 318 318 319 318 319 320 319 318
307 307 307 307 307 307 307 307 307 307 307 307 307 307 307 307 306 306 306 306 306 306 306 306 304 303 302 302 301 301 300 299 301 305 308 309 311 312 313 315 317 319 322 324 327 327 328 328 328 327 327 327 327 327 327 328 328 328 327 327 327 327 327 327 327 327 327 327 327 327 327 326 326 324 323 323 322 319 318 319 320 319 320 319 318
306 306 306 306 306 306 306 306 306 306 306 307 307 307 306 306 306 305 305 305 305 305 305 305 304 302 302 301 300 300 299 298 300 305 307 309 312 313 314 315 316 318 320 323 326 327 328 328 327 327 327 327 327 326 326 326 327 326 325 325 326 327 326 326 327 327 326 326 327 327 327 326 325 324 324 323 323 322 320 320 320 319 319 319 319
305 305 305 305 305 305 305 305 305 305 306 306 306 306 306 306 305 305 305 304 304 304 304 304 303 302 301 301 300 300 299 298 300 304 307 309 312 314 315 316 317 319 321 322 323 325 326 327 327 326 327 327 328 327 326 326 326 324 323 322 323 324 324 325 326 325 325 326 326 326 325 325 324 323 323 322 322 322 320 319 320 320 320 320 320
304 304 304 304 304 304 304 304 305 305 305 305 305 305 305 305 305 305 304 304 303 303 303 303 302 301 300 300 300 299 299 298 299 302 305 308 311 313 313 314 315 315 316 318 319 319 322 325 326 327 327 328 329 329 327 326 326 323 320 320 321 321 321 323 324 324 324 325 324 324 324 324 322 321 321 321 322 322 319 317 319 320 320 320 318
304 304 304 304 303 303 303 303 304 304 304 304 304 303 303 304 304 304 304 304 303 303 302 302 302 301 300 299 299 299 299 298 298 300 303 306 309 310 310 311 311 309 310 312 313 314 318 324 326 327 328 327 328 328 327 325 324 322 320 319 319 318 319 321 322 322 321 320 321 322 322 321 319 318 318 318 319 319 317 317 317 319 320 320 317
304 303 303 303 303 303 303 303 303 303 303 303 303 302 302 302 303 302 303 303 302 302 302 302 301 300 299 299 298 298 298 297 297 298 301 303 306 307 307 307 307 306 306 307 307 307 312 319 322 323 326 326 326 326 325 324 322 321 320 319 317 316 317 318 318 318 317 316 316 317 317 317 317 316 316 316 317 317 318 318 318 319 320 319 317
303 303 303 303 303 303 302 302 302 302 302 302 302 301 301 301 301 301 301 301 301 301 301 301 301 300 299 298 298 297 297 297 297 297 299 300 302 304 304 303 303 303 304 305 304 303 306 312 316 319 323 324 323 324 323 322 321 319 319 318 316 316 315 315 315 315 314 313 312 312 311 311 311 312 312 313 315 316 316 317 317 318 319 318 317
303 303 303 303 302 302 302 301 302 301 301 301 301 301 300 300 300 300 300 300 300 300 300 300 301 300 299 298 297 297 297 297 297 297 298 298 299 300 300 301 302 303 303 303 304 302 302 306 311 316 319 320 320 321 321 320 319 318 317 316 314 314 314 313 312 311 310 310 309 308 308 308 307 307 307 308 310 311 312 313 314 316 317 317 317
303 303 303 303 303 302 302 301 301 301 301 301 301 301 300 300 299 300 299 299 299 299 299 299 300 299 299 298 297 297 296 296 296 297 297 298 298 298 299 299 300 302 301 301 302 301 301 304 308 312 315 316 317 318 318 317 316 315 314 314 313 312 311 310 309 308 307 307 306 306 306 306 306 306 305 305 305 307 308 309 309 311 311 311 310
303 302 302 302 302 302 302 302 302 301 301 301 300 300 300 299 299 299 299 299 299 299 299 298 298 298 298 297 297 296 296 296 296 297 297 298 298 298 299 299 299 299 300 300 300 300 301 304 307 308 309 311 312 312 312 312 312 312 312 311 311 310 309 308 307 306 306 305 305 305 305 306 306 306 305 304 304 304 305 306 307 307 307 305 305
302 302 302 302 302 302 302 302 302 302 301 300 300 300 300 299 299 299 299 299 299 299 298 298 298 298 298 297 297 296 296 296 296 296 297 298 298 298 299 299 299 299 299 300 300 300 301 303 305 306 306 307 308 308 308 308 308 309 309 309 308 308 307 306 306 305 305 304 304 303 303 303 303 303 303 303 303 302 303 304 305 305 304 304 303
302 302 302 302 302 302 302 302 302 302 301 300 300 300 300 299 299 299 299 299 299 298 298 298 297 297 297 297 297 296 296 296 296 296 296 297 297 298 298 299 299 299 299 299 300 300 300 301 302 303 304 305 305 305 305 306 307 307 307 307 307 306 305 305 305 304 303 303 302 302 303 303 303 302 302 301 302 301 302 302 302 302 302 302 303
301 301 302 302 302 302 302 302 302 302 301 300 300 300 300 299 299 298 299 299 299 299 298 298 298 297 297 297 297 297 296 296 296 296 296 296 296 297 297 298 298 299 298 299 299 299 299 299 299 300 300 301 302 302 302 303 303 304 304 305 304 304 304 304 303 303 302 302 303 304 304 305 305 305 304 304 304 304 304 303 302 301 301 301 301
301 301 300 301 301 302 302 302 302 302 301 300 299 299 299 299 299 298 298 298 298 298 298 298 298 298 297 297 297 297 297 296 296 296 295 295 295 296 296 297 297 298 297 297 298 298 298 299 299 298 298 299 299 299 300 300 300 301 301 302 302 302 303 303 303 302 302 303 304 304 304 304 304 305 305 305 305 305 305 304 303 303 302 302 301
300 300 300 299 300 301 301 301 302 302 301 300 299 299 299 299 298 298 297 297 297 297 297 297 297 298 298 297 296 296 296 296 296 296 296 295 295 295 295 296 297 297 297 298 298 297 297 297 296 296 296 295 295 296 296 297 298 299 299 300 300 300 301 301 301 302 302 302 303 303 303 303 303 303 304 304 304 304 305 305 304 304 303 303 302
300 300 299 299 299 300 300 300 301 301 302 301 300 300 299 299 298 297 296 296 295 295 295 295 295 296 297 297 296 296 296 296 296 296 296 295 295 295 295 296 296 297 297 298 298 296 295 294 294 294 294 294 293 294 294 294 295 296 297 298 298 299 299 299 300 300 301 301 301 301 302 302 302 302 303 302 302 303 303 303 303 303 303 302 302
300 300 300 299 299 299 299 299 299 300 301 301 301 301 300 300 299 298 298 297 296 295 295 295 295 295 295 296 296 296 296 297 297 297 296 296 296 295 295 295 295 296 297 297 296 294 293 292 292 292 293 293 293 293 293 293 294 294 295 296 297 297 298 298 298 299 299 300 300 300 300 300 301 301 301 301 301 301 301 302 302 302 301 301 301
300 300 300 299 299 299 299 299 299 299 299 299 300 300 301 301 300 300 299 298 298 297 297 297 296 295 295 295 295 295 296 296 297 297 297 296 296 296 295 295 295 295 296 296 294 292 292 292 292 292 292 292 292 292 293 293 293 293 293 294 294 295 296 296 297 298 298 298 298 298 298 299 299 299 299 299 299 299 300 300 300 301 300 300 300
299 299 299 300 299 299 299 299 298 299 299 298 299 299 299 300 300 300 300 300 299 299 298 298 297 296 296 295 295 295 295 295 296 297 297 297 297 297 296 295 295 294 295 294 293 292 292 292 292 292 292 292 292 292 292 292 292 293 293 293 293 294 294 295 296 296 296 297 297 297 297 298 298 298 299 299 299 299 299 299 299 299 300 300 299
299 299 299 299 299 299 299 299 298 298 298 299 298 298 298 299 299 299 300 300 300 300 299 299 298 298 297 296 296 296 296 296 296 297 297 297 297 297 296 296 295 294 294 293 293 292 293 292 292 292 292 292 292 292 292 292 292 292 292 293 293 293 294 294 295 295 295 296 296 296 296 297 297 298 298 298 298 298 298 298 298 299 299 299 298
299 299 299 299 299 299 299 299 298 298 298 298 298 298 298 298 298 298 299 299 299 299 299 299 299 298 296 296 296 296 296 296 296 296 297 297 297 297 297 296 295 295 294 294 293 293 292 292 292 292 292 292 292 292 292 292 292 292 292 292 292 293 293 293 294 294 294 295 295 295 296 296 296 297 297 297 297 297 297 297 297 297 297 297 297
299 299 298 298 299 300 299 299 298 298 298 298 298 298 298 298 298 298 298 298 298 298 299 299 298 297 296 295 296 296 296 296 296 296 297 297 297 297 296 296 295 295 295 294 294 293 293 293 292 292 292 292 292 292 292 292 292 292 292 292 292 292 293 293 293 294 294 294 294 295 295 295 296 296 296 296 296 296 296 296 296 296 297 296 296
300 299 298 298 299 299 299 299 298 298 298 298 298 298 297 297 297 297 298 298 298 298 298 298 297 296 296 295 296 296 296 296 296 296 296 297 297 297 296 296 295 295 294 294 294 294 293 293 293 293 292 292 292 291 291 291 292 292 292 292 292 292 292 293 293 293 294 294 294 294 295 295 295 294 294 295 295 295 295 296 296 295 295 296 296
300 298 298 298 298 299 299 299 298 298 298 298 298 298 297 298 298 297 297 298 297 298 298 298 297 296 295 295 295 296 297 296 296 296 296 296 297 296 296 296 295 295 294 294 294 294 293 293 293 293 292 292 291 291 291 291 292 292 292 292 292 292 293 293 293 293 293 294 294 294 294 294 294 294 294 294 294 294 294 295 295 295 295 295 295
300 299 298 298 298 298 299 298 298 298 298 298 298 298 298 298 298 297 297 297 297 297 298 298 297 297 296 295 295 296 297 296 296 296 295 296 296 296 296 295 295 295 295 294 294 294 294 293 293 293 292 292 292 291 291 292 292 292 292 292 292 292 293 293 293 293 293 293 294 294 294 294 294 294 294 294 293 293 294 294 294 294 294 294 294
300 299 298 298 298 298 298 298 298 298 298 297 297 298 298 297 297 297 297 297 297 297 297 298 298 297 296 295 295 296 296 296 296 295 295 295 295 295 295 295 295 295 295 294 294 294 293 293 293 293 292 292 292 292 292 292 292 292 292 292 292 292 292 292 293 293 293 293 293 293 293 294 294 293 293 293 293 293 293 294 294 294 294 294 294
299 299 298 298 298 298 298 298 298 298 298 297 298 298 297 297 297 297 297 297 297 297 297 298 298 297 297 296 296 296 296 296 295 295 295 295 295 295 295 295 295 295 295 294 294 294 293 293 293 293 292 292 292 292 292 292 292 292 292 292 292 292 292 292 292 292 292 292 292 293 293 293 293 293 293 293 293 293 293 293 293 293 293 293 293
298 298 297 297 298 298 299 298 297 297 297 298 298 298 297 297 297 297 297 297 297 297 297 298 297 297 297 297 296 296 296 296 295 295 295 295 295 295 295 295 295 295 294 294 294 294 293 293 293 292 292 292 292 292 292 292 292 292 292 292 292 292 292 292 292 292 292 292 292 292 292 292 292 292 293 292 293 292 292 292 293 293 293 293 293
298 298 297 297 298 298 298 298 297 297 297 297 297 297 297 297 297 297 297 297 297 297 297 297 297 297 297 297 296 296 295 295 295 295 295 295 295 295 295 294 294 294 294 294 294 294 293 293 293 292 292 292 292 292 293 292 292 292 292 292 292 292 292 292 292 291 291 292 292 292 292 292 292 292 292 292 292 292 292 292 292 292 292 292 292
298 298 297 298 298 298 298 298 297 297 296 297 297 297 297 297 297 297 297 297 297 297 297 297 297 297 297 297 297 296 295 295 295 295 295 295 295 295 294 294 294 294 294 294 294 294 293 293 293 293 293 293 293 293 292 292 292 292 292 292 292 292 292 292 292 291 291 292 292 292 292 292 292 292 292 292 292 291 291 292 292 292 292 292 291
298 297 297 297 298 298 298 298 297 296 296 297 297 297 296 297 296 296 297 297 296 297 297 297 297 297 297 297 297 297 296 295 295 295 295 295 295 295 294 294 294 294 294 294 293 293 293 293 293 293 293 293 292 292 292 292 292 292 292 292 292 292 292 292 291 291 291 292 292 292 292 292 292 292 292 292 292 291 291 291 292 292 292 291 291
297 297 297 297 297 297 297 297 297 296 296 297 297 296 296 296 296 296 297 297 296 297 297 297 297 297 297 297 297 297 296 296 295 295 295 295 295 295 294 294 294 294 294 294 293 293 293 293 293 292 292 292 292 292 292 292 292 292 292 292 292 291 291 291 291 291 291 292 292 292 292 292 292 292 292 292 292 292 292 291 291 291 292 291 291
297 297 297 297 297 296 296 297 296 296 296 296 296 296 296 296 296 296 297 297 296 297 297 297 297 297 297 297 297 297 296 296 295 295 295 295 294 295 294 294 294 294 294 293 293 293 293 293 292 292 292 292 292 292 292 292 292 292 292 292 291 291 291 290 291 291 291 291 291 291 291 292 291 291 292 292 292 292 291 291 291 291 291 291 291
297 297 297 297 297 296 296 297 296 296 297 296 296 296 296 296 296 296 297 296 296 297 297 297 297 297 297 297 297 297 296 296 296 295 295 295 294 294 294 294 294 294 293 293 293 293 293 292 292 292 292 291 291 291 291 291 291 291 291 291 291 291 290 290 290 291 291 291 291 291 291 291 291 291 291 291 291 291 291 291 291 291 291 291 291
298 297 297 297 297 296 296 297 296 296 296 296 296 296 296 296 296 296 296 296 296 296 297 297 297 297 297 297 297 296 297 296 296 295 295 295 294 294 294 294 293 293 293 293 293 293 292 292 291 291 291 290 290 290 290 290 290 290 290 291 291 290 289 289 290 290 290 290 291 291 291 291 291 291 291 291 291 291 291 291 291 291 291 291 291
298 297 297 297 297 297 297 297 296 296 296 296 295 296 296 296 296 296 296 295 296 296 296 296 296 296 296 296 296 296 296 296 296 296 295 295 294 294 294 294 293 293 293 293 293 292 292 291 291 290 290 290 290 290 290 290 290 290 290 289 289 288 289 289 289 289 290 290 291 291 291 291 291 291 291 291 290 290 290 290 290 290 291 291 291
298 298 297 297 297 297 297 296 296 296 296 296 295 296 296 296 295 295 295 295 296 295 295 295 296 296 296 296 296 296 296 296 296 296 295 295 295 294 294 294 293 293 293 293 292 291 291 291 291 291 291 291 290 290 290 290 290 289 289 287 287 288 289 289 289 289 289 290 291 291 291 291 291 291 291 290 290 290 290 289 289 289 290 291 291
Wind_Speed
16 17 17 18 19 20 20 20 19 20 20 20 18 18 20 21 22 22 21 20 19 19 19 20 19 17 15 14 14 14 17 19 20 20 20 21 21 21 21 22 24 24 23 24 23 22 24 24 24 25 26 25 26 25 26 26 23 21 20 19 17 18 17 14 9 7 12 19 22 22 25 27 26 25 24 25 27 25 24 23 20 20 23 25 26
17 18 18 19 20 21 21 21 21 21 21 20 19 19 20 20 22 23 22 21 21 21 20 21 21 18 16 15 14 14 16 19 21 21 21 21 22 21 20 22 26 27 24 25 26 24 23 25 24 23 24 26 27 26 26 26 22 21 22 19 18 18 18 17 14 10 11 18 20 22 26 27 25 25 25 28 29 26 25 25 22 21 22 24 25
16 17 19 20 21 21 22 22 22 22 22 21 21 21 21 21 21 22 23 22 22 22 22 21 21 20 18 17 16 15 16 18 20 22 23 23 24 24 22 23 27 30 28 26 25 23 23 25 26 23 22 24 27 26 26 26 22 20 21 20 20 19 17 19 18 13 13 17 20 23 27 28 25 24 25 28 30 27 24 24 24 23 22 22 23
16 17 19 19 20 21 21 22 22 22 22 21 21 22 22 21 21 21 22 22 23 24 24 22 22 21 20 18 18 17 17 17 19 22 25 25 26 27 25 22 24 28 29 25 22 22 23 24 25 25 23 23 26 27 28 26 24 23 23 22 22 19 19 21 20 15 11 13 19 24 26 27 26 24 25 28 30 28 24 23 24 23 22 21 23
17 17 18 19 20 20 21 21 22 22 22 21 21 21 22 22 21 21 21 22 23 23 23 23 23 24 23 20 19 20 20 19 20 22 24 25 26 27 26 22 22 26 27 24 22 22 23 24 25 25 23 23 25 26 28 28 26 25 25 24 23 20 18 19 20 17 14 14 16 21 25 27 26 25 27 31 30 26 24 23 24 23 22 22 21
18 18 19 20 20 21 21 21 21 22 22 22 22 22 22 22 22 22 22 22 23 23 23 23 24 24 23 23 21 20 20 21 23 25 24 24 25 26 26 24 24 27 26 23 24 25 24 23 25 26 24 25 27 27 27 28 26 24 25 25 24 18 14 16 17 16 16 19 18 20 23 24 25 24 26 30 30 26 24 23 23 23 24 24 23
18 19 20 21 21 21 21 21 21 22 22 23 22 22 23 23 22 22 22 23 23 23 24 24 24 23 22 22 23 22 22 23 23 22 20 21 23 24 27 26 26 27 26 24 26 27 24 24 25 25 25 26 26 26 26 28 26 25 25 25 23 18 14 16 18 16 17 19 19 21 24 22 24 25 23 26 28 27 27 25 23 23 25 26 25
18 19 19 20 21 21 21 21 21 22 22 22 22 22 23 23 23 23 23 23 23 24 24 24 23 23 22 21 21 23 24 23 21 20 20 20 20 21 23 25 25 27 28 28 28 26 26 28 26 24 26 26 25 25 27 29 28 25 23 23 23 20 16 16 18 19 20 18 17 15 15 17 24 27 23 22 24 26 28 27 24 24 26 26 23
18 19 19 20 20 20 20 20 21 21 21 21 21 22 22 22 22 22 22 23 23 23 24 24 24 24 23 22 22 22 21 20 22 24 25 23 22 21 19 20 23 25 25 26 27 27 27 28 25 23 24 25 25 27 29 30 29 26 24 23 23 21 18 16 18 18 19 19 16 10 7 9 19 25 25 24 23 23 27 28 25 24 26 25 21
19 19 19 20 19 19 20 20 20 21 21 21 21 22 22 22 22 22 22 23 23 23 24 24 24 24 24 24 24 22 20 22 26 28 26 25 24 22 21 19 21 24 24 23 25 27 27 26 25 24 25 25 24 26 29 30 29 28 26 25 25 24 21 21 22 21 20 19 15 10 6 10 14 19 24 25 23 21 26 28 25 24 26 23 19
20 20 19 19 20 20 20 20 20 20 21 21 21 22 22 23 22 22 22 22 23 23 24 24 24 24 24 24 24 22 21 25 30 31 28 25 24 23 23 21 20 22 25 25 25 27 28 26 24 25 26 26 25 26 28 30 29 28 27 27 27 26 24 25 25 24 23 20 17 16 15 11 13 17 20 21 18 20 27 29 25 24 25 21 16
20 19 19 19 20 20 20 20 20 20 21 21 21 22 23 23 23 23 22 23 23 23 23 24 24 24 24 24 24 23 22 26 32 34 31 26 23 23 23 23 21 21 24 24 24 26 27 25 23 25 26 25 24 26 27 29 29 26 25 26 25 24 23 23 24 24 24 22 18 18 19 19 17 16 19 20 17 19 26 29 26 24 24 22 19
18 18 19 19 20 20 21 21 20 21 22 22 22 23 23 23 24 24 23 23 23 23 24 24 24 24 25 25 25 24 23 27 34 36 33 29 24 23 22 23 23 21 22 24 24 24 25 25 23 24 26 23 22 24 26 26 25 23 22 23 22 20 19 19 21 23 25 24 22 21 23 26 21 15 20 22 19 19 23 24 26 25 22 24 24
18 18 18 19 20 20 20 21 21 21 22 23 23 23 24 24 24 24 24 23 24 24 24 25 24 25 26 25 27 26 24 31 38 37 33 31 28 24 21 21 23 23 22 24 25 25 25 24 21 22 25 23 22 24 25 25 23 21 20 19 17 16 16 17 18 19 21 23 23 21 23 26 23 18 20 18 16 21 24 21 23 22 16 16 20
18 18 19 19 20 20 20 21 21 21 22 23 23 23 24 24 24 25 24 23 24 24 24 24 24 25 26 26 29 28 27 34 41 37 33 32 30 28 21 17 20 22 21 22 24 25 25 24 23 23 23 23 24 25 26 26 26 22 19 16 16 15 15 17 17 17 17 18 19 18 18 21 21 20 19 15 12 19 24 21 21 21 15 15 18
18 18 19 20 20 21 21 21 22 22 22 23 23 23 24 23 24 25 23 23 24 24 23 24 23 25 26 26 29 29 28 37 43 38 33 32 30 29 22 16 16 18 19 22 24 25 24 23 23 24 23 22 24 25 27 28 26 23 20 18 17 16 16 16 17 17 18 18 16 13 11 14 19 21 22 18 13 15 20 19 19 21 19 17 17
17 18 18 20 20 21 21 22 22 23 23 23 23 23 23 23 23 24 23 22 24 24 24 23 23 25 26 27 29 28 28 37 44 40 34 31 28 27 23 15 12 10 11 14 16 19 21 22 23 24 24 23 22 23 25 27 24 23 23 22 19 17 16 15 15 16 18 18 16 13 12 14 19 21 21 20 17 16 18 18 17 19 21 16 11
18 18 18 19 20 21 21 21 22 23 23 23 24 25 24 23 23 24 22 21 23 24 24 23 23 26 27 27 29 29 29 36 43 41 36 31 27 25 23 18 14 11 7 2 3 7 13 19 22 23 24 22 21 22 23 22 22 23 24 24 22 19 16 15 16 16 16 15 14 14 15 16 18 18 18 19 19 18 17 16 13 14 18 17 13
18 18 18 19 19 20 20 21 21 22 23 23 24 25 25 24 24 24 23 22 22 22 23 23 24 27 28 27 29 31 32 36 43 43 38 33 28 25 24 23 21 20 17 12 9 6 8 14 19 22 21 19 20 22 20 19 20 21 23 22 21 19 17 16 18 19 18 17 16 16 16 16 16 16 15 16 17 16 15 18 19 18 16 19 21
17 18 18 19 19 20 21 21 20 21 22 23 23 24 24 23 24 24 23 22 22 22 22 22 23 26 29 29 30 32 33 37 42 43 40 36 31 26 24 23 21 20 21 20 17 14 14 16 16 18 19 18 18 18 17 17 19 20 20 20 20 20 19 19 20 21 21 21 19 18 17 15 15 15 14 13 15 15 15 18 20 18 17 19 20
16 17 18 18 19 20 21 21 21 21 22 22 22 24 24 24 24 24 24 23 23 23 23 21 21 24 27 29 31 34 34 37 41 42 41 39 34 29 27 24 20 20 22 23 23 24 24 25 22 20 22 19 14 15 18 19 19 19 18 19 21 22 22 21 21 21 21 21 20 18 18 17 16 16 16 16 15 14 14 14 13 15 17 17 15
15 16 17 18 18 19 20 21 21 21 21 22 22 24 25 24 24 24 24 23 23 23 23 22 21 22 25 27 30 34 36 37 38 40 40 39 37 34 31 27 24 24 26 28 28 28 29 30 28 24 24 22 18 19 22 21 20 20 20 21 23 24 24 24 23 22 21 22 21 20 19 19 20 21 20 20 19 18 18 17 15 16 17 16 15
14 15 16 17 17 17 18 20 20 21 22 22 22 23 24 24 23 23 23 23 23 22 23 23 21 20 23 26 28 32 37 38 37 38 39 38 35 34 33 31 29 28 30 31 29 27 29 32 32 29 27 26 25 25 24 24 24 24 23 24 25 25 25 25 24 24 24 24 24 23 22 21 23 23 22 21 20 19 20 21 20 20 21 19 19
14 15 16 16 16 16 16 17 18 20 21 21 20 21 22 23 22 22 23 22 21 21 22 22 21 19 20 23 27 30 35 38 38 37 38 37 35 33 31 30 30 31 32 32 30 28 30 32 31 30 31 31 30 30 29 28 27 26 24 23 23 23 25 26 26 26 26 25 25 24 23 22 23 23 21 21 21 19 19 19 20 21 23 23 22
14 15 15 15 16 16 16 16 16 18 20 21 20 19 20 21 20 20 21 21 20 20 20 20 20 20 19 20 25 28 32 37 39 38 36 36 35 34 31 29 29 30 31 31 30 30 30 30 29 29 31 32 32 32 30 28 26 26 25 24 23 24 26 27 27 26 26 25 24 23 22 22 23 22 20 19 21 22 22 23 23 22 23 24 24
13 13 14 14 15 15 15 15 15 16 18 18 18 18 18 19 19 18 19 19 18 18 17 17 18 18 18 18 22 26 29 33 36 37 37 35 33 33 32 30 27 27 28 29 28 29 30 30 30 31 31 31 32 33 31 29 27 26 25 25 25 25 25 26 27 26 25 24 23 23 22 23 23 23 22 21 23 25 25 25 24 22 22 24 25
12 13 13 13 12 13 14 14 14 15 16 17 17 17 16 16 18 18 17 17 17 16 15 15 15 16 16 16 19 23 27 31 33 34 35 34 32 30 30 30 28 27 27 27 27 28 28 29 31 32 32 32 33 33 32 31 30 29 28 28 27 25 25 26 27 27 26 26 24 21 19 18 18 19 20 21 23 24 24 24 24 22 22 24 25
11 12 12 11 11 11 12 13 12 12 12 14 17 18 16 14 15 17 18 18 18 17 15 14 13 13 14 16 19 21 25 29 30 30 31 31 30 28 27 27 26 26 26 27 26 27 27 28 30 31 32 33 34 34 33 33 32 32 30 29 28 26 25 25 25 24 24 23 21 19 16 15 15 17 19 20 20 19 18 20 21 21 22 24 24
12 12 12 13 12 10 10 12 11 9 8 9 12 16 16 14 12 14 17 19 19 18 17 16 15 12 12 16 18 19 21 24 25 25 27 28 28 27 25 23 22 21 21 22 24 28 29 30 31 32 33 33 33 32 31 31 31 31 30 29 28 26 25 25 24 22 21 21 21 19 18 18 18 19 21 21 20 17 17 17 17 18 19 21 21
13 13 14 15 15 15 15 15 13 9 6 6 6 8 11 13 12 13 16 18 18 19 18 19 18 16 14 16 18 17 17 19 21 23 25 25 26 26 24 21 18 16 14 15 20 28 30 30 31 30 31 31 31 30 29 29 29 30 29 28 27 26 25 26 25 23 22 22 22 21 20 19 19 18 19 20 19 17 16 16 16 17 19 21 21
14 13 14 15 17 19 19 18 16 13 11 8 6 4 5 7 8 10 12 15 16 16 17 18 19 19 18 19 20 19 17 18 20 22 22 23 24 25 25 22 19 17 15 16 23 28 29 28 28 28 28 29 28 28 28 27 27 27 27 26 25 24 24 24 24 24 24 24 24 23 21 20 19 18 19 19 19 18 18 19 20 21 21 21 21
13 12 12 15 17 17 16 16 16 16 16 14 12 9 6 4 4 5 7 9 12 13 15 17 17 18 19 20 21 20 19 19 19 20 21 21 20 22 23 23 22 21 20 23 27 28 26 25 25 25 26 27 26 26 26 26 25 25 25 25 24 23 23 22 23 23 24 24 23 23 22 22 21 20 20 19 20 20 21 21 22 22 22 21 21
12 13 12 13 14 14 14 16 18 17 17 16 16 16 14 11 8 5 5 6 7 7 12 17 18 17 18 20 20 20 19 19 18 19 20 20 18 17 18 21 23 23 24 26 27 25 24 24 24 23 23 24 24 25 25 24 24 24 24 23 23 22 21 21 22 23 23 22 22 21 21 21 21 21 21 20 20 20 20 20 21 21 20 19 17
12 15 14 13 12 13 13 15 16 16 17 17 17 18 18 16 14 11 9 9 9 6 8 15 17 17 18 20 19 18 18 18 19 19 19 20 19 17 16 18 21 23 24 26 25 22 22 23 22 22 22 22 22 23 23 23 23 23 23 22 21 21 20 20 22 23 22 21 21 20 19 19 19 19 20 20 19 19 18 17 16 16 16 15 14
11 14 14 13 13 12 12 13 14 15 17 16 15 16 18 18 17 15 13 13 13 12 12 15 16 17 20 21 20 17 16 17 19 20 20 19 19 18 17 18 19 21 21 22 22 21 21 21 20 20 21 21 21 21 21 20 20 20 21 20 20 19 19 19 19 19 19 20 19 18 18 18 18 18 18 18 17 18 17 16 15 15 16 16 16
10 11 11 11 13 11 11 12 14 14 15 16 14 15 17 18 18 17 15 15 15 15 15 15 16 18 20 22 21 18 16 18 20 21 20 19 18 18 18 18 17 17 17 17 18 18 19 19 19 19 19 19 19 19 19 18 18 18 18 19 19 18 18 18 18 18 18 17 17 16 16 16 16 16 17 16 15 15 15 15 15 15 14 14 15
7 9 9 8 10 11 10 11 11 11 13 14 14 14 15 16 16 16 17 18 17 17 16 15 16 17 19 21 22 18 15 17 21 21 20 19 18 17 17 16 15 15 15 15 15 15 16 16 16 17 17 18 18 18 18 18 18 18 17 17 17 16 16 16 16 17 17 16 16 16 16 16 15 15 16 16 15 14 14 14 14 13 13 13 13
8 10 10 9 8 10 10 11 10 10 12 13 13 14 15 16 16 14 14 17 17 16 15 14 15 16 17 18 20 18 15 16 19 20 20 20 18 16 15 15 14 13 13 13 13 13 14 14 14 14 15 16 17 17 18 17 16 15 14 13 13 13 12 12 12 13 14 14 15 15 15 15 15 14 15 15 15 14 13 13 12 12 13 14 15
8 9 10 9 7 9 11 9 9 9 10 12 13 15 16 16 16 12 13 15 16 14 13 12 12 13 14 16 18 17 15 15 17 18 18 18 17 16 15 14 13 13 12 12 12 11 12 12 12 12 13 14 15 15 15 14 13 13 12 12 13 13 13 13 13 13 13 13 13 14 14 14 14 14 14 15 15 15 15 14 12 11 11 12 14
5 5 7 8 8 10 11 9 9 10 12 12 14 14 13 12 14 10 12 14 14 13 12 12 11 11 13 17 17 15 13 14 15 16 16 16 16 16 16 13 11 11 11 10 10 10 10 10 10 11 11 11 12 12 12 11 11 12 12 13 14 14 13 13 13 13 13 12 13 13 14 14 14 14 14 13 13 13 13 12 11 11 9 8 9
8 7 7 8 9 9 9 10 10 10 12 12 12 12 12 14 14 8 11 13 14 14 14 13 11 9 11 15 16 13 11 12 14 14 14 14 14 14 15 14 12 11 10 9 9 9 9 9 9 9 9 9 9 10 10 10 10 10 10 11 11 11 11 11 12 12 12 13 13 13 13 12 12 11 10 10 11 11 11 10 9 8 8 8 7
7 7 6 8 10 9 10 11 11 10 10 9 8 9 12 17 14 8 12 12 13 14 14 13 11 10 11 14 15 13 11 12 13 13 12 12 12 12 12 13 12 10 9 8 8 8 8 7 8 8 7 7 7 7 7 7 7 8 9 9 9 9 10 10 10 11 11 11 12 12 11 11 10 10 10 10 10 10 10 9 7 6 7 10 10
6 7 7 8 10 10 10 11 11 10 10 9 6 6 11 15 12 10 13 13 12 12 13 13 11 10 11 13 13 13 11 11 11 11 10 10 10 11 11 11 10 9 9 8 8 8 7 7 7 6 6 5 6 6 6 6 7 7 7 7 7 8 8 8 9 9 9 9 9 9 8 8 8 8 9 9 8 7 8 9 10 10 11 12 12
6 7 8 10 10 9 8 8 8 9 11 10 7 7 10 10 10 11 13 14 14 14 13 12 10 10 10 11 11 12 11 9 9 10 9 9 9 9 9 9 8 8 8 8 7 6 6 6 5 5 4 4 5 5 4 6 7 7 6 5 5 6 6 7 8 8 7 6 7 7 6 7 6 5 6 6 7 8 9 10 11 13 11 9 9
7 6 7 8 10 10 10 10 9 10 13 12 10 13 15 15 13 12 11 12 14 15 13 11 10 9 9 9 10 11 11 10 10 9 8 7 7 7 7 8 7 7 7 7 6 6 5 4 5 4 3 3 4 4 3 3 5 6 5 5 5 5 4 4 4 5 5 4 7 9 6 4 3 4 7 8 9 10 9 8 8 8 7 7 6
6 8 8 7 8 10 10 10 10 12 14 14 13 14 15 16 15 12 9 11 13 13 12 11 11 9 9 9 9 9 10 11 10 8 5 5 6 5 5 6 6 5 5 6 6 5 5 4 4 4 3 2 2 2 2 4 5 5 4 3 3 4 3 2 2 3 3 3 7 12 10 6 4 5 8 9 10 9 8 6 6 6 5 5 6
4 7 8 7 9 11 10 9 10 12 12 12 13 13 12 12 14 14 10 10 10 11 12 12 12 10 10 9 9 8 9 10 9 8 5 4 4 4 4 4 4 3 4 4 4 5 5 4 3 3 3 3 2 1 2 4 4 3 2 1 0 1 2 2 3 3 3 4 7 11 13 11 9 8 9 10 9 8 6 5 4 5 6 7 6
5 6 5 4 6 10 10 8 10 12 11 11 13 13 12 13 15 14 12 12 11 10 10 11 11 11 10 10 9 9 7 7 8 8 7 6 5 4 3 3 2 2 3 3 3 3 3 3 3 2 3 4 3 1 2 3 2 1 2 2 2 2 2 2 2 2 2 4 7 9 9 10 10 10 8 7 7 8 8 6 4 3 5 7 6
3 5 7 5 6 7 7 7 10 11 10 11 13 13 12 13 14 14 15 16 14 11 9 9 10 11 10 9 10 10 8 8 8 7 6 7 7 5 3 3 3 3 3 3 3 2 3 4 4 3 2 3 3 2 2 2 2 2 2 3 3 4 4 4 3 2 2 3 5 7 7 6 7 8 7 5 4 4 5 5 5 4 3 4 5
1 3 7 7 7 7 7 7 9 10 9 11 13 14 13 12 14 16 16 14 12 12 13 11 10 10 9 9 10 10 9 8 8 7 6 6 6 5 5 6 6 5 3 3 3 2 3 4 4 2 1 2 3 2 1 3 4 4 5 6 5 4 3 5 4 2 2 4 5 7 7 4 3 4 6 6 5 4 3 3 3 4 4 3 2
5 5 5 6 8 9 7 6 8 10 8 10 11 13 13 12 14 15 15 14 12 13 13 12 10 10 11 11 11 11 10 8 8 7 6 5 5 5 5 5 6 6 5 4 3 3 3 3 3 2 2 1 2 1 2 3 5 6 7 7 4 1 2 3 3 3 3 4 4 6 6 4 2 2 4 4 4 4 3 3 3 3 4 4 3
Wind_Direction
11 10 10 7 4 3 1 359 358 356 352 348 345 341 337 333 330 331 331 329 326 324 319 312 304 297 290 289 287 279 273 271 270 267 261 259 257 253 254 259 257 250 241 239 238 232 228 228 227 224 223 222 220 220 220 218 217 219 218 216 223 224 215 203 189 192 205 199 190 186 186 186 183 181 182 185 189 188 187 193 197 197 199 203 204
12 13 11 8 6 4 2 1 359 356 352 350 346 342 339 336 335 335 334 332 329 326 323 320 314 305 295 292 290 285 281 277 274 268 264 262 261 257 252 253 256 253 243 236 236 233 230 230 228 224 222 223 221 219 218 218 218 220 218 215 220 222 214 208 200 179 184 196 192 186 189 190 186 183 183 185 186 183 184 192 198 198 200 202 203
13 15 13 9 7 5 3 2 359 355 353 351 347 344 341 340 340 339 337 336 333 332 330 327 322 313 302 294 290 288 284 280 277 272 267 264 263 260 255 249 253 254 247 238 235 235 234 233 231 225 220 221 221 219 218 218 217 218 218 216 219 221 217 213 205 184 178 188 185 183 190 194 189 184 186 190 187 180 184 194 195 195 200 205 208
12 17 15 11 8 5 4 3 357 354 354 351 348 348 346 343 342 341 339 338 337 337 338 337 334 329 318 304 295 291 287 284 284 278 273 269 266 265 262 255 254 257 254 245 238 237 236 236 235 228 222 221 220 219 220 218 217 219 219 218 219 218 215 210 203 195 199 197 185 183 188 189 187 185 185 188 187 181 183 190 191 192 198 207 213
10 14 15 13 9 5 6 4 357 355 355 352 352 354 352 348 346 344 342 341 340 341 343 342 343 343 338 328 316 305 295 289 287 283 278 276 276 274 272 266 261 262 258 249 241 237 234 238 238 228 221 222 222 221 221 220 218 220 220 219 220 217 211 209 206 202 211 220 202 186 184 185 187 189 184 181 183 183 184 186 188 191 197 203 211
9 10 13 15 10 6 8 3 356 356 355 353 356 358 356 355 353 350 348 347 346 347 348 346 344 345 344 342 339 329 313 300 293 287 282 280 278 276 274 273 270 265 260 253 249 245 240 238 236 228 221 220 221 221 222 221 218 216 216 217 217 215 204 206 216 205 200 221 217 187 183 188 189 191 186 178 178 181 184 187 189 192 195 197 202
12 12 13 14 9 6 6 1 356 358 357 356 358 358 358 359 358 355 353 351 350 350 350 349 348 348 346 343 340 335 329 322 311 303 299 294 287 278 272 271 270 265 259 256 253 249 243 238 234 230 225 221 221 223 223 222 217 216 218 216 214 213 195 194 213 207 197 222 225 192 184 185 186 194 192 179 177 180 181 186 190 193 194 194 198
20 16 13 13 10 5 3 0 360 1 359 357 358 358 360 1 360 359 357 356 354 352 351 351 350 351 350 346 340 334 332 335 335 334 334 328 315 298 281 271 269 266 258 251 249 246 244 242 239 235 231 228 225 225 226 223 216 215 219 215 210 208 190 188 211 209 199 220 240 224 199 181 184 195 197 187 182 179 180 185 189 190 190 192 197
27 21 15 13 9 4 3 3 4 4 2 360 359 359 0 1 1 1 1 360 358 355 354 354 353 353 352 350 348 342 336 335 338 339 339 336 330 320 303 282 272 268 258 249 249 252 249 245 240 234 229 227 223 222 227 226 218 212 210 208 207 201 185 188 207 199 189 208 235 255 268 230 197 191 194 199 193 180 179 185 189 191 187 183 188
27 24 17 11 7 6 6 5 5 6 5 2 1 1 1 1 3 3 3 2 1 359 358 357 356 355 354 352 349 347 340 331 330 331 330 330 328 322 313 297 281 271 264 256 254 254 250 245 241 232 226 226 223 224 231 231 223 214 209 206 207 201 187 186 192 185 180 198 209 191 205 250 231 201 194 196 194 188 184 181 183 184 179 173 178
25 22 16 9 7 8 8 7 6 6 7 5 3 3 2 3 3 3 3 3 2 2 1 360 359 356 354 353 350 347 341 332 330 330 328 325 321 316 311 304 291 276 268 263 257 252 247 243 240 235 232 233 232 231 231 227 220 214 212 213 211 205 194 186 186 182 179 189 197 183 181 208 230 224 208 190 189 199 190 180 180 177 171 171 178
23 18 13 9 8 9 9 9 8 7 8 7 5 4 4 4 3 3 3 2 2 3 2 1 0 358 355 353 351 348 342 335 334 336 334 327 318 311 305 300 294 281 270 264 259 253 248 241 239 239 236 232 231 231 227 219 212 208 208 210 208 204 201 196 194 191 185 184 188 189 191 200 211 215 201 189 197 202 186 178 182 180 173 175 181
24 18 14 11 10 11 10 9 8 8 8 7 6 7 6 5 5 3 1 0 0 2 2 1 360 359 358 355 351 349 345 341 341 340 337 332 325 315 304 296 292 285 275 267 258 253 251 243 236 234 231 223 221 226 222 213 207 203 204 206 203 199 200 201 202 201 198 194 188 187 196 205 211 199 183 191 205 197 182 179 184 185 183 186 192
24 19 16 14 12 11 10 10 8 7 6 5 5 7 8 7 6 4 1 1 1 0 1 3 1 359 358 355 353 351 350 350 350 346 340 336 331 323 310 296 288 283 279 272 261 255 253 244 231 226 224 215 209 214 214 210 206 201 199 197 189 182 182 189 197 201 203 200 192 189 196 204 210 198 183 197 213 196 187 186 185 185 178 177 185
25 20 17 15 13 11 10 10 9 6 5 5 5 6 7 8 8 6 3 3 3 1 2 4 3 359 358 355 355 355 354 355 356 352 346 341 335 330 323 304 288 282 280 279 268 257 253 245 231 225 221 207 199 203 208 208 202 194 187 176 167 166 166 173 181 186 193 197 192 192 199 206 209 203 196 208 217 198 194 192 185 180 161 141 150
27 22 19 17 14 13 12 10 9 6 5 6 7 7 6 6 7 6 4 4 5 4 3 5 4 2 359 357 356 355 355 359 0 359 355 350 343 338 333 313 294 289 287 285 274 260 253 242 225 220 218 207 199 202 206 206 196 179 167 163 164 167 168 170 175 179 184 188 187 186 188 196 204 211 215 216 203 184 182 176 170 168 156 136 131
27 23 21 18 17 17 15 12 9 7 6 8 9 7 6 6 7 7 6 7 8 6 4 5 6 3 1 0 360 357 355 1 5 5 3 360 355 353 350 334 314 307 298 288 274 258 246 233 222 218 214 207 200 198 199 198 185 163 154 155 156 158 162 168 171 176 183 190 192 184 169 172 188 201 210 209 199 184 170 156 153 156 151 141 127
27 24 22 20 18 18 17 14 11 8 7 8 9 7 5 6 7 6 7 9 11 9 8 9 10 7 4 3 4 2 359 3 9 11 10 8 9 13 18 21 25 29 27 355 243 232 222 214 212 208 203 200 198 195 191 183 170 156 149 148 146 145 149 158 160 163 172 180 183 178 168 168 176 184 190 193 198 202 189 171 171 171 156 146 134
27 25 25 23 20 20 20 18 15 13 10 9 10 9 6 6 7 6 6 9 10 10 11 14 16 14 11 9 10 10 7 8 13 16 15 15 17 23 31 36 35 33 34 46 66 95 153 178 189 193 191 191 188 184 178 169 162 159 154 146 138 136 142 149 150 147 145 145 149 154 156 159 164 167 171 176 183 193 190 185 195 198 174 150 141
29 27 28 26 23 23 24 22 20 19 15 12 14 14 10 9 10 8 8 10 9 9 12 18 22 20 18 18 18 17 15 14 17 21 22 21 21 25 33 37 34 32 36 39 40 50 86 117 142 162 166 167 168 168 165 159 154 155 155 148 138 138 141 139 137 135 129 126 128 134 136 140 148 150 149 151 156 162 165 171 183 187 170 151 143
30 30 30 29 26 27 28 25 23 23 20 17 19 19 16 14 14 12 11 10 10 11 11 15 22 23 21 20 21 22 21 20 21 24 27 28 28 30 36 41 40 41 45 44 36 37 58 81 97 119 133 138 145 149 149 150 148 146 146 144 141 140 137 130 127 128 124 119 116 115 115 116 118 121 123 123 127 137 147 154 166 174 172 167 151
31 31 33 33 31 31 32 29 25 24 22 20 22 23 21 18 18 17 15 12 12 14 13 12 17 21 20 19 19 21 24 25 24 25 29 33 35 37 40 45 51 53 51 49 45 40 49 66 80 95 109 114 118 125 130 136 139 137 134 134 134 133 130 126 124 122 118 115 113 107 103 101 97 94 98 103 106 110 113 115 126 146 157 162 151
31 35 37 35 33 34 34 30 27 26 26 24 24 25 23 21 20 19 19 17 15 14 14 13 14 17 18 18 18 20 24 26 26 26 30 33 36 40 42 45 53 58 56 53 50 45 50 64 75 84 94 102 107 111 115 120 124 126 127 128 129 129 127 123 120 117 113 111 108 103 100 99 96 91 89 91 94 97 98 97 102 111 115 117 120
31 37 38 35 33 33 34 32 28 27 28 28 27 27 24 22 22 23 22 22 21 20 18 16 14 14 15 16 17 19 22 25 25 26 30 33 35 38 42 45 49 54 58 58 55 51 56 67 76 81 88 95 100 104 106 109 112 116 122 126 128 128 124 118 115 112 108 104 102 102 103 103 102 100 100 99 98 98 98 97 99 102 104 105 106
37 37 35 32 31 30 31 31 31 29 27 26 28 30 28 24 23 25 26 25 25 25 23 20 18 16 15 15 16 17 20 24 25 25 26 30 33 35 38 43 48 53 57 60 58 57 62 71 78 82 86 89 93 95 96 98 103 108 113 116 117 117 116 114 111 107 102 99 100 103 107 108 105 103 104 107 109 107 106 106 105 106 108 106 102
41 40 37 33 29 29 29 29 34 36 30 25 25 29 32 30 26 26 26 26 27 27 24 24 23 19 16 13 12 14 18 21 23 24 23 25 29 33 36 39 45 52 58 62 64 64 64 69 74 78 82 85 87 88 88 91 96 100 103 107 107 107 109 109 109 106 103 103 106 107 110 110 108 106 105 107 108 107 106 107 105 105 110 110 103
38 40 40 34 28 30 30 31 41 44 35 31 33 33 34 35 33 32 30 26 26 26 23 22 21 17 13 10 8 11 15 17 19 21 22 22 25 29 34 37 43 50 56 61 65 66 66 68 70 73 77 81 84 85 86 87 88 88 90 96 98 99 102 105 106 105 105 107 107 106 108 111 112 113 112 109 106 104 104 106 107 105 106 107 103
46 44 40 34 34 38 33 33 50 59 46 42 46 45 42 40 36 37 39 36 32 29 24 20 18 12 7 8 9 11 12 15 17 19 20 21 23 26 30 34 39 46 53 58 65 68 70 71 70 68 69 71 73 75 77 79 81 80 82 86 90 93 96 99 100 102 105 108 107 102 102 106 108 113 114 107 104 110 116 118 118 116 109 104 103
44 46 38 33 35 41 38 37 53 73 67 53 51 49 46 46 44 44 46 45 42 39 34 30 26 18 8 10 13 12 12 16 20 20 20 22 23 26 29 31 35 42 47 53 60 63 63 63 63 60 59 58 59 61 64 68 73 76 78 81 83 84 86 86 88 93 99 103 104 102 101 100 99 106 111 105 101 111 121 122 124 125 118 110 110
34 37 36 33 30 32 35 36 39 52 67 73 72 57 42 41 47 49 49 48 45 42 39 37 34 30 22 19 22 20 18 20 21 19 21 25 26 27 29 31 34 38 38 44 55 57 55 54 54 55 57 56 55 54 54 57 62 67 71 75 76 77 77 77 80 88 95 98 99 99 100 98 98 105 111 107 103 108 113 114 115 119 118 115 115
33 29 30 32 33 34 35 30 25 31 43 50 62 73 53 38 39 39 41 45 44 38 33 32 33 36 34 29 27 25 21 21 22 21 23 26 27 27 29 33 41 46 47 55 59 55 53 54 55 56 60 61 59 57 57 57 58 61 65 69 72 75 77 76 78 85 91 93 95 96 95 95 97 101 102 99 98 101 105 107 108 109 108 106 106
41 31 23 26 34 36 32 24 19 25 32 31 29 33 38 37 31 16 16 28 33 31 26 20 20 27 31 29 26 23 21 21 21 22 26 29 29 27 27 33 45 53 58 62 62 56 53 54 54 55 59 61 61 61 62 61 61 63 64 63 64 69 73 76 81 86 86 87 89 90 90 90 92 93 92 90 90 92 93 96 99 101 100 99 98
58 45 27 21 29 32 27 25 23 19 18 21 25 23 19 21 25 9 344 349 358 15 25 20 12 13 19 23 22 21 22 25 24 24 27 30 31 29 27 29 37 47 55 59 59 57 55 54 52 53 57 60 61 61 62 64 67 68 67 64 63 65 70 76 81 83 83 84 86 87 88 88 88 87 86 86 88 88 89 91 94 99 104 105 106
68 47 24 9 20 31 29 25 25 18 10 16 26 21 10 12 19 18 13 2 344 344 21 20 10 8 11 11 12 16 22 27 30 29 28 30 31 33 33 32 34 40 47 53 56 56 57 56 55 56 57 59 60 60 61 65 68 70 69 69 69 71 73 76 77 75 75 79 82 83 85 87 87 87 86 86 87 87 87 90 94 100 105 104 104
56 39 18 360 4 24 31 25 23 20 9 8 21 23 12 8 12 16 21 18 4 4 19 15 8 13 14 7 4 11 22 28 29 27 27 28 29 29 31 35 38 39 42 49 54 57 58 59 59 60 60 59 59 60 62 66 69 70 71 70 71 72 73 75 75 74 74 76 77 79 82 84 88 91 91 90 88 86 85 86 88 91 93 89 87
38 33 24 3 351 2 26 26 22 23 11 360 13 28 19 10 10 11 14 18 17 17 21 16 10 16 18 12 7 12 25 32 30 25 23 25 28 29 30 33 37 40 42 48 53 57 59 61 61 62 62 62 61 62 65 68 72 75 76 75 75 75 75 77 79 80 81 82 84 87 90 90 92 94 94 92 90 87 86 87 86 85 84 84 87
46 38 31 15 351 349 15 27 21 20 12 359 8 29 23 10 8 12 13 17 20 20 22 22 19 17 15 12 10 11 23 33 30 24 22 25 29 33 33 31 34 38 41 45 52 56 58 60 61 63 63 63 64 68 71 75 77 77 76 75 75 76 77 79 79 79 80 81 82 85 88 92 97 98 95 95 95 94 92 90 84 75 71 76 85
93 64 35 27 6 348 4 27 26 15 6 359 9 31 30 9 359 9 21 18 13 16 24 25 22 18 13 9 9 10 19 29 29 25 23 23 27 32 34 34 35 36 38 42 49 54 58 59 61 65 66 66 70 76 77 76 73 68 64 62 62 66 69 70 73 76 79 79 81 82 83 86 91 92 90 90 89 89 90 88 79 70 68 70 72
95 74 38 30 15 346 351 16 23 15 12 7 8 26 33 8 346 360 31 23 6 9 24 26 21 18 11 5 5 9 16 26 33 32 26 22 23 26 30 34 37 35 36 42 47 52 57 58 60 64 67 70 76 78 75 68 62 56 55 57 59 59 61 64 69 74 76 76 81 86 88 89 90 89 87 85 81 80 85 85 80 74 71 64 60
31 36 26 18 5 354 356 4 13 26 35 23 6 13 20 352 331 356 42 30 3 0 17 25 25 21 9 2 3 6 13 25 34 35 30 26 24 24 26 31 38 40 41 43 45 50 55 57 58 65 69 71 74 73 68 64 62 60 62 67 67 63 62 62 64 67 70 74 79 83 87 93 96 93 90 87 81 80 83 83 80 81 76 64 64
357 1 10 356 342 348 6 9 12 33 44 28 9 8 355 327 322 9 54 35 10 6 12 18 23 22 10 5 4 6 18 31 33 33 34 31 26 22 23 26 33 40 44 46 48 51 54 55 57 64 71 74 76 75 72 70 68 66 68 71 70 66 63 62 61 61 65 71 76 79 82 87 90 88 85 83 83 84 87 87 89 91 80 70 80
349 346 352 345 339 350 14 16 14 25 31 17 11 12 344 321 322 24 55 36 18 15 10 8 15 19 9 4 6 16 34 40 33 32 37 37 30 28 26 26 30 36 38 42 48 51 54 60 61 63 71 73 69 67 70 71 72 72 69 68 72 73 70 65 63 65 67 70 75 79 80 78 76 76 77 80 84 87 85 81 83 94 84 75 79
346 347 349 348 347 357 13 15 11 10 2 343 335 347 335 325 336 20 34 26 22 20 11 6 14 19 8 1 9 23 35 40 37 36 36 37 39 38 31 24 27 35 37 40 43 44 51 63 63 59 63 57 40 41 55 60 65 73 72 69 74 77 73 70 71 74 79 81 74 67 71 76 80 84 86 87 89 88 74 60 64 79 86 83 82
342 360 1 353 349 357 9 10 5 352 333 319 315 331 336 341 4 21 22 20 20 19 13 7 11 16 8 2 9 18 22 32 46 46 38 36 44 47 38 28 25 31 38 41 38 37 47 59 57 54 59 47 31 40 58 51 48 57 69 77 82 77 74 79 74 63 63 68 50 37 59 90 92 83 90 103 108 101 83 65 65 72 72 70 80
352 3 4 356 351 352 358 5 9 355 340 339 353 359 356 358 5 13 24 30 23 16 10 5 6 12 11 8 11 11 11 23 42 48 42 42 46 45 42 37 30 28 34 37 31 27 33 43 45 49 52 36 31 48 53 17 16 34 56 76 89 87 87 94 74 45 40 48 35 30 49 110 110 63 74 101 117 112 92 75 77 82 69 62 76
12 5 358 359 358 349 347 360 6 353 345 354 6 5 0 355 349 352 20 40 31 19 11 3 3 10 13 11 13 9 5 17 34 41 45 58 60 49 40 40 35 28 28 29 25 21 23 31 41 43 32 16 34 64 42 358 2 28 48 57 68 74 80 109 97 53 34 33 34 38 51 84 115 91 86 98 111 113 99 83 92 108 107 100 93
47 26 357 356 4 351 343 357 359 342 342 0 5 357 357 352 338 338 1 29 35 31 19 3 0 11 13 8 11 11 9 15 22 20 25 56 65 45 31 33 30 24 25 27 21 16 17 27 38 33 17 5 7 54 37 15 15 27 26 348 28 92 92 121 125 93 55 41 44 49 56 65 72 82 92 92 84 76 75 82 106 126 133 134 115
41 36 347 354 16 352 338 356 1 345 349 7 3 354 357 348 332 335 359 13 19 31 25 6 4 12 10 2 5 10 11 13 11 8 14 24 15 5 25 46 27 7 13 20 11 357 356 1 2 1 353 341 326 337 23 19 353 288 268 257 227 224 246 222 171 142 108 77 61 55 57 58 53 56 74 84 66 49 52 60 68 100 135 143 136
13 355 329 350 26 356 338 2 4 348 355 11 2 354 351 338 333 355 15 8 358 6 16 13 14 14 6 1 4 3 2 8 10 10 16 14 3 7 45 49 15 349 338 336 337 334 331 332 336 344 345 337 342 14 26 349 321 291 272 271 275 275 261 233 204 186 167 124 77 56 57 68 62 52 51 55 51 44 43 38 26 23 57 110 130
356 355 330 343 357 340 338 8 360 341 356 17 3 346 339 340 354 12 10 349 345 3 6 2 8 12 6 6 7 1 358 4 6 8 20 21 12 15 24 15 5 0 344 331 344 2 338 324 332 352 11 355 7 23 329 296 306 314 311 307 304 291 242 215 212 204 153 131 97 65 57 62 71 62 52 48 54 63 51 17 355 354 9 32 84
356 357 327 330 331 319 327 9 353 328 345 20 6 339 333 352 13 9 347 336 357 13 357 343 354 7 5 6 7 1 357 359 357 359 13 20 12 9 9 5 6 8 356 335 333 344 330 318 333 356 355 337 348 340 291 296 311 320 322 321 318 276 196 201 213 201 168 153 118 81 67 54 41 58 49 37 43 52 33 350 334 336 334 332 327